Weather History for Montego Bay, Jamaica

Change the Weather History Date:

Saturday, March 29, 2014

  Actual Average Record
Temperature  
Mean Temperature 80 °F -  
Max Temperature 90 °F 83 °F 90 °F (2014)
Min Temperature 71 °F 74 °F 71 °F (2009)
Cooling Degree Days 16    
Growing Degree Days 30 (Base 50)    
Moisture  
Dew Point 73 °F    
Average Humidity 78    
Maximum Humidity 89    
Minimum Humidity 67    
Precipitation  
Precipitation 0.00 in - - ()
Sea Level Pressure  
Sea Level Pressure 29.97 in    
Wind  
Wind Speed 6 mph ()    
Max Wind Speed 17 mph    
Max Gust Speed -    
Visibility 8.3 miles    
Events Thunderstorm    
Averages and records for this station are not official NWS values.
T = Trace of Precipitation, MM = Missing Value Source: Averaged Metar Reports

Daily Weather History Graph

Daily Weather History Graph

Search for Another Location

Airport:

Trip Planner

Search our weather history database for the weather conditions in past years. The results will help you decide how hot, cold, wet, or windy it might be!

Date:

Astronomy

Mar. 29, 2014 Rise Set
Actual Time 6:08 AM EST 6:24 PM EST
Civil Twilight 5:46 AM EST 6:46 PM EST
Nautical Twilight 5:20 AM EST 7:12 PM EST
Astronomical Twilight 4:55 AM EST 7:37 PM EST
Moon 5:06 AM EST (3/29) 5:32 PM EST (3/29)
Length of Visible Light 13h 00m
Length of Day
12h 16m
Waning Crescent, 2% of the Moon is Illuminated
Mar 29
Waning Crescent
Mar 30
New
Apr 7
First Quarter
Apr 15
Full
Apr 22
Last Quarter

Hourly Weather History & Observations

Time (EST) Temp. Heat Index Dew Point Humidity Pressure Visibility Wind Dir Wind Speed Gust Speed Precip Events Conditions
12:00 AM 78.8 °F - 71.6 °F 78% 30.01 in 6.2 mi ESE 4.6 mph - N/A   Partly Cloudy
1:00 AM 75 °F - 70 °F 80% 29.99 in 12 mi ESE 3.5 mph - -   Haze
1:00 AM 75.2 °F - 69.8 °F 83% 29.98 in 6.2 mi ESE 3.5 mph - N/A   Partly Cloudy
2:00 AM 75.2 °F - 69.8 °F 83% 29.95 in 6.2 mi Variable 2.3 mph - N/A   Partly Cloudy
3:00 AM 73.4 °F - 69.8 °F 88% 29.86 in 6.2 mi Variable 2.3 mph - N/A   Partly Cloudy
4:00 AM 71 °F - 67 °F 82% 29.95 in 12 mi 2.3 mph - -   Haze
4:00 AM 71.6 °F - 66.2 °F 83% - 6.2 mi Variable 2.3 mph - N/A   Partly Cloudy
5:00 AM 71.6 °F - 66.2 °F 83% 29.95 in 6.2 mi Variable 2.3 mph - N/A   Partly Cloudy
6:00 AM 73.4 °F - 66.2 °F 78% 29.95 in 6.2 mi Variable 1.2 mph - N/A   Partly Cloudy
7:00 AM 77 °F - 69 °F 71% 30.01 in 16 mi 2.3 mph - -   Scattered Clouds
7:00 AM 77.0 °F - 69.8 °F 78% 30.01 in 6.2 mi Variable 2.3 mph - N/A   Partly Cloudy
8:00 AM 80.6 °F 84.6 °F 71.6 °F 74% 30.04 in 6.2 mi SE 9.2 mph - N/A   Partly Cloudy
9:00 AM 84.2 °F 92.3 °F 75.2 °F 74% 30.04 in 6.2 mi East 12.7 mph - N/A   Partly Cloudy
10:00 AM 84 °F - 75 °F 69% 30.05 in 16 mi ENE 11.5 mph - -   Haze
10:00 AM 84.2 °F 92.3 °F 75.2 °F 74% 30.04 in 6.2 mi ENE 11.5 mph - N/A   Partly Cloudy
11:00 AM 84.2 °F 92.3 °F 75.2 °F 74% 30.04 in 6.2 mi ENE 11.5 mph - N/A   Partly Cloudy
12:00 PM 86.0 °F 95.1 °F 75.2 °F 70% 30.01 in 6.2 mi ENE 17.3 mph - N/A   Partly Cloudy
1:00 PM 85 °F - 77 °F 71% 29.99 in 16 mi NE 16.1 mph - -   Haze
1:00 PM 86.0 °F 96.9 °F 77.0 °F 74% 29.98 in 6.2 mi NE 16.1 mph - N/A   Partly Cloudy
2:00 PM 86.0 °F 96.9 °F 77.0 °F 74% 29.95 in 6.2 mi ENE 11.5 mph - N/A   Partly Cloudy
3:00 PM 86.0 °F 96.9 °F 77.0 °F 74% 29.92 in 6.2 mi NE 16.1 mph - N/A   Partly Cloudy
4:00 PM 85 °F - 76 °F 67% 29.92 in 14 mi ENE 11.5 mph - -   Haze
4:00 PM 84.2 °F 92.3 °F 75.2 °F 74% 29.92 in 6.2 mi ENE 11.5 mph - N/A   Partly Cloudy
5:00 PM 82.4 °F 89.5 °F 75.2 °F 79% 29.92 in 6.2 mi ENE 11.5 mph - N/A   Partly Cloudy
6:00 PM 82.4 °F 89.5 °F 75.2 °F 79% 29.92 in 6.2 mi East 8.1 mph - N/A   Partly Cloudy
7:00 PM 80 °F - 74 °F 77% 29.95 in 16 mi East 4.6 mph - -   Scattered Clouds
7:00 PM 80.6 °F 85.4 °F 73.4 °F 79% 29.95 in 6.2 mi East 4.6 mph - N/A Thunderstorm Partly Cloudy
8:00 PM 78.8 °F - 75.2 °F 89% 29.98 in 6.2 mi Variable 2.3 mph - N/A   Partly Cloudy
9:00 PM 78.8 °F - 73.4 °F 83% 29.98 in 6.2 mi Variable 2.3 mph - N/A   Partly Cloudy
10:00 PM 78 °F - 74 °F 82% 29.99 in 16 mi 2.3 mph - -   Haze
10:00 PM 78.8 °F - 73.4 °F 83% 29.98 in 6.2 mi Variable 2.3 mph - N/A   Partly Cloudy
11:00 PM 78.8 °F - 73.4 °F 83% 29.98 in 6.2 mi South 4.6 mph - N/A   Partly Cloudy